GW3493 Weather Reports


time (UTC)temp
C
wind
direction
speed
KPH
gust
KPH
rain 1hr
cm
rain 24hr
cm
rain mn
cm
humidity
%
barometer
mb
20260510071207 12 309 1.6 1.6 0.00 0.00 0.00 97 1007.5
20260510070229 12 335 1.6 1.6 0.00 0.00 0.00 97 1007.3
20260510065205 12 328 0.0 3.2 0.00 0.00 0.00 97 1008.1
20260510064207 11 337 1.6 3.2 0.00 0.00 0.00 97 1008.6
20260510063125 11 300 0.0 0.0 0.00 0.00 0.00 96 1008.2
20260510062250 11 300 0.0 0.0 0.00 0.00 0.00 96 1007.7
20260510061205 11 300 0.0 1.6 0.00 0.00 0.00 96 1007.7
20260510060247 11 300 0.0 1.6 0.00 0.00 0.00 96 1007.9
20260510055145 12 295 1.6 3.2 0.00 0.00 0.00 96 1007.9
20260510054207 12 315 1.6 1.6 0.00 0.00 0.00 96 1008.0
20260510053123 12 32 1.6 1.6 0.00 0.00 0.00 96 1008.8
20260510052308 12 0 1.6 1.6 0.00 0.00 0.00 96 1008.5
20260510051207 12 19 1.6 1.6 0.00 0.00 0.00 96 1007.7
20260510050229 12 15 1.6 1.6 0.00 0.00 0.00 96 1008.4
20260510045147 12 14 0.0 1.6 0.00 0.00 0.00 96 1008.5
20260510044208 11 12 0.0 1.6 0.00 0.00 0.00 96 1008.3
20260510043127 11 16 0.0 3.2 0.00 0.00 0.00 96 1007.9
20260510042312 11 300 0.0 0.0 0.00 0.00 0.00 96 1007.6
20260510041210 11 300 0.0 0.0 0.00 0.00 0.00 95 1007.5
20260510040252 11 300 0.0 0.0 0.00 0.00 0.00 95 1007.4
20260510035150 11 300 0.0 1.6 0.00 0.00 0.00 95 1007.5
20260510034211 11 299 1.6 1.6 0.00 0.00 0.00 95 1007.6
20260510033129 11 299 0.0 1.6 0.00 0.00 0.00 94 1007.6
20260510032254 12 300 0.0 1.6 0.00 0.00 0.00 94 1007.7
20260510031212 12 300 1.6 3.2 0.00 0.00 0.00 94 1007.7
20260510030234 12 326 0.0 3.2 0.00 0.00 0.00 93 1007.8
20260510025152 12 32 0.0 4.8 0.00 0.00 0.00 92 1008.7
20260510024214 12 26 1.6 3.2 0.00 0.00 0.00 91 1008.6
20260510023131 12 45 1.6 4.8 0.00 0.00 0.00 90 1008.7
20260510022256 13 44 1.6 6.4 0.00 0.00 0.00 86 1008.6
20260510021209 15 16 4.8 16.1 0.00 0.00 0.00 72 1008.4
20260510020231 16 10 1.6 3.2 0.00 0.00 0.00 65 1007.1
20260510015148 16 318 1.6 3.2 0.00 0.00 0.00 64 1006.3
20260510014250 16 296 1.6 3.2 0.00 0.00 0.00 64 1006.0
20260510013128 16 306 0.0 3.2 0.00 0.00 0.00 64 1005.9
20260510012253 16 283 1.6 4.8 0.00 0.00 0.00 64 1005.5
20260510011211 16 295 1.6 3.2 0.00 0.00 0.00 63 1005.7
20260510010233 16 323 0.0 1.6 0.00 0.00 0.00 63 1005.6
20260510005151 16 317 1.6 1.6 0.00 0.00 0.00 62 1005.5
20260510004313 16 304 1.6 3.2 0.00 0.00 0.00 60 1005.6
20260510003151 16 273 1.6 4.8 0.00 0.00 0.00 59 1005.5
20260510002256 17 294 1.6 6.4 0.00 0.00 0.00 57 1005.3
20260510001214 17 278 3.2 4.8 0.00 0.00 0.00 56 1005.3
20260510000236 17 268 3.2 6.4 0.00 0.00 0.00 54 1005.2
20260509235154 17 271 3.2 6.4 0.00 0.00 0.00 54 1004.9
20260509234236 18 268 1.6 4.8 0.00 0.00 0.00 54 1004.9
20260509233134 18 259 3.2 9.7 0.00 0.00 0.00 54 1005.0
20260509232258 18 276 4.8 12.9 0.00 0.00 0.00 54 1005.0
20260509231216 18 251 3.2 9.7 0.00 0.00 0.00 54 1005.0
20260509230238 19 272 3.2 14.5 0.00 0.00 0.00 53 1004.8
20260509225155 19 259 4.8 12.9 0.00 0.00 0.00 52 1004.7
20260509224217 19 260 4.8 14.5 0.00 0.00 0.00 52 1004.6
20260509223135 20 275 4.8 11.3 0.00 0.00 0.00 50 1004.7
20260509222301 20 263 3.2 12.9 0.00 0.00 0.00 51 1004.6
20260509221217 20 261 4.8 9.7 0.00 0.00 0.00 52 1004.7
20260509220239 20 260 4.8 9.7 0.00 0.00 0.00 50 1004.9
20260509215157 20 273 4.8 9.7 0.00 0.00 0.00 49 1005.1
20260509214219 20 271 6.4 14.5 0.00 0.00 0.00 50 1005.0
20260509213137 19 269 3.2 14.5 0.00 0.00 0.00 53 1005.0
20260509212305 18 265 3.2 14.5 0.00 0.00 0.00 55 1005.2
20260509211220 18 258 3.2 9.7 0.00 0.00 0.00 56 1005.2
20260509210241 18 254 3.2 6.4 0.00 0.00 0.00 56 1005.4
20260509205159 20 257 3.2 6.4 0.00 0.00 0.00 55 1005.4
20260509204221 20 252 4.8 11.3 0.00 0.00 0.00 54 1005.5
20260509203139 18 223 6.4 11.3 0.00 0.00 0.00 55 1005.7
20260509202200 18 249 4.8 17.7 0.00 0.00 0.00 57 1005.6
20260509201222 18 248 3.2 6.4 0.00 0.00 0.00 57 1005.8
20260509200243 18 244 4.8 17.7 0.00 0.00 0.00 59 1005.9
20260509195241 17 272 4.8 11.3 0.00 0.00 0.00 61 1006.2
20260509194220 17 264 4.8 16.1 0.00 0.00 0.00 62 1006.2
20260509193138 18 258 4.8 16.1 0.00 0.00 0.00 61 1006.4
20260509192220 18 272 3.2 9.7 0.00 0.00 0.00 61 1006.3
20260509191221 18 239 4.8 11.3 0.00 0.00 0.00 62 1006.4
20260509190242 18 262 4.8 16.1 0.00 0.00 0.00 62 1006.6
20260509185201 17 265 6.4 17.7 0.00 0.00 0.00 65 1006.7
20260509184222 17 251 4.8 14.5 0.00 0.00 0.00 64 1006.7
20260509183141 16 229 4.8 11.3 0.00 0.00 0.00 67 1006.8
20260509182202 16 239 4.8 11.3 0.00 0.00 0.00 66 1006.8
20260509181223 16 257 3.2 6.4 0.00 0.00 0.00 70 1006.9
20260509180245 16 254 3.2 11.3 0.00 0.00 0.00 71 1007.0
20260509175223 15 272 4.8 6.4 0.00 0.00 0.00 72 1006.9
20260509174224 15 300 1.6 4.8 0.00 0.00 0.00 74 1007.0
20260509173202 15 297 3.2 11.3 0.00 0.00 0.00 74 1007.0
20260509172204 15 272 4.8 11.3 0.00 0.00 0.00 75 1007.0
20260509171225 15 276 3.2 6.4 0.00 0.00 0.00 72 1006.9
20260509170246 15 278 4.8 6.4 0.00 0.00 0.00 72 1006.8
20260509165204 15 289 3.2 11.3 0.00 0.00 0.00 73 1006.8
20260509164226 15 296 3.2 3.2 0.00 0.00 0.00 74 1006.8
20260509163143 16 282 3.2 9.7 0.00 0.00 0.00 74 1006.8
20260509162205 15 246 3.2 9.7 0.00 0.00 0.00 75 1006.6
20260509161246 15 296 3.2 11.3 0.00 0.00 0.00 77 1006.6
20260509160308 14 253 4.8 9.7 0.00 0.00 0.00 80 1006.6
20260509155226 14 289 3.2 9.7 0.00 0.00 0.00 82 1006.5
20260509154228 13 266 3.2 9.7 0.00 0.00 0.00 83 1006.6
20260509153146 13 284 1.6 6.4 0.00 0.00 0.00 86 1006.5
20260509152207 12 276 3.2 9.7 0.00 0.00 0.00 86 1006.5
20260509151228 12 290 1.6 6.4 0.00 0.00 0.00 89 1006.3
20260509150146 11 300 1.6 3.2 0.00 0.00 0.00 90 1006.7
20260509145208 12 282 1.6 4.8 0.00 0.00 0.00 90 1006.7
20260509144230 12 308 3.2 9.7 0.00 0.00 0.00 90 1006.7
20260509143208 12 278 3.2 6.4 0.00 0.00 0.00 91 1006.6
20260509142106 11 283 1.6 3.2 0.00 0.00 0.00 92 1006.5
20260509141231 11 274 3.2 14.5 0.00 0.00 0.00 92 1006.6
20260509140149 11 298 3.2 11.3 0.00 0.00 0.00 92 1006.6
20260509135211 11 282 1.6 4.8 0.00 0.00 0.00 92 1006.6
20260509134127 11 287 3.2 4.8 0.00 0.00 0.00 93 1006.6
20260509133209 11 307 1.6 3.2 0.00 0.00 0.00 93 1006.7
20260509132107 11 295 1.6 4.8 0.00 0.00 0.00 94 1006.7
20260509131233 11 292 1.6 6.4 0.00 0.00 0.00 94 1006.8
20260509130151 10 288 1.6 4.8 0.00 0.00 0.00 94 1006.8
20260509125212 10 282 1.6 11.3 0.00 0.00 0.00 94 1006.9
20260509124150 10 242 3.2 4.8 0.00 0.00 0.00 94 1006.9
20260509123152 10 292 3.2 4.8 0.00 0.00 0.00 93 1007.0
20260509122130 10 272 3.2 4.8 0.00 0.00 0.00 93 1007.1
20260509121235 10 296 1.6 6.4 0.00 0.00 0.00 94 1007.1
20260509120152 10 292 1.6 4.8 0.00 0.00 0.00 93 1007.1
20260509115234 10 290 1.6 4.8 0.00 0.00 0.00 93 1007.0
20260509114132 10 312 1.6 4.8 0.00 0.00 0.00 93 1006.9
20260509113154 10 281 1.6 6.4 0.00 0.00 0.00 93 1006.9
20260509112112 10 288 1.6 4.8 0.00 0.00 0.00 93 1006.9
20260509111237 10 282 1.6 6.4 0.00 0.00 0.00 92 1006.8
20260509110156 10 292 1.6 6.4 0.00 0.00 0.00 92 1006.7
20260509105217 10 271 3.2 11.3 0.00 0.00 0.00 91 1006.7
20260509104132 10 283 1.6 4.8 0.00 0.00 0.00 90 1006.6
20260509103153 10 296 1.6 6.4 0.00 0.00 0.00 90 1006.6
20260509102112 10 288 1.6 4.8 0.00 0.00 0.00 90 1006.6
20260509101237 10 279 1.6 6.4 0.00 0.00 0.00 90 1006.6
20260509100155 10 280 1.6 4.8 0.00 0.00 0.00 90 1006.6
20260509095216 10 288 1.6 4.8 0.00 0.00 0.00 91 1006.7
20260509094155 10 287 1.6 3.2 0.00 0.00 0.00 91 1006.8
20260509093157 10 308 1.6 6.4 0.00 0.00 0.00 93 1006.8
20260509092115 10 283 1.6 3.2 0.00 0.00 0.00 96 1007.1
20260509091156 9 329 1.6 3.2 0.00 0.00 0.00 96 1007.0
20260509090158 9 0.0 0.0 0.00 0.00 0.00 96 1007.1
20260509085220 9 0.0 0.0 0.00 0.00 0.00 96 1007.1
20260509084137 9 0.0 0.0 0.00 0.00 0.00 96 1007.3
20260509083159 9 24 0.0 1.6 0.00 0.00 0.00 96 1007.2
20260509082138 9 0.0 0.0 0.00 0.00 0.00 96 1007.4
20260509081139 9 0.0 0.0 0.00 0.00 0.00 96 1007.3
20260509080159 9 0.0 0.0 0.00 0.00 0.00 96 1007.2
20260509075221 9 24 0.0 1.6 0.00 0.00 0.00 96 1007.3
20260509074139 9 0.0 0.0 0.00 0.00 0.00 96 1007.3
20260509073221 9 0.0 0.0 0.00 0.00 0.00 96 1007.3
20260509072138 9 0.0 0.0 0.00 0.00 0.00 96 1007.4